Location: Asheville, NC
(35.6000°N, 82.5500°W)
Time: 18:48:06
(UTC-05:00)

Vanguard 3 - Pass Details

Date: 10 February 2018
Orbit: 508 x 3264 km, 33.3° (Epoch: 17 February)

Event Time Altitude Azimuth Distance (km) Brightness Sun altitude
Rises 02:22:37 0° 270° (W) 4,772 - -59.4°
Reaches altitude 10° 02:26:21 10° 256° (WSW) 4,200 - -58.8°
Maximum altitude 02:34:49 22° 211° (SSW) 4,079 - -57.4°
Drops below altitude 10° 02:46:17 10° 168° (SSE) 5,811 - -55.4°
Exits shadow 02:47:21 - 166° (SSE) 6,013 11.4 -55.2°
Sets 02:52:59 0° 156° (SSE) 7,100 11.9 -54.2°
